This demonstration page uses our WeatherBlox Daily Observations layout. Learn more.

Left ArrowRight Arrow

Hourly Observations for March 26, 2020

Temp ( °F °C ) Dew Point ( °F °C ) Humidity (%) Winds ( mph kmh ) Pressure ( in mb ) Visibility ( mi km ) Precip ( " mm )
12:53 am 00:53 Cloudy 27 -2.8 23 -5 85 85 ENE 6 9 29.84 1011 10 16 N/A
1:53 am 01:53 Partly Cloudy 26 -3.3 22 -5.6 84 84 N N/A 29.83 1010 10 16 N/A
2:53 am 02:53 Clear 25 -3.9 20 -6.7 81 81 N N/A 29.81 1010 10 16 N/A
3:53 am 03:53 Clear 22 -5.6 20 -6.7 92 92 SE 3 6 29.79 1009 10 16 N/A
4:53 am 04:53 Clear 22 -5.6 19 -7.2 89 89 N N/A 29.79 1009 10 16 N/A
5:53 am 05:53 Clear 21 -6.1 19 -7.2 92 92 N N/A 29.79 1009 10 16 N/A
6:53 am 06:53 Clear 28 -2.2 25 -3.9 88 88 SW 15 24 29.77 1008 10 16 N/A
7:53 am 07:53 Sunny 29 -1.7 26 -3.3 89 89 SW 14 22 29.78 1009 10 16 N/A
8:53 am 08:53 Sunny 33 0.6 27 -2.8 78 78 SW 16 26 29.78 1008 10 16 N/A
9:53 am 09:53 Sunny 35 1.7 25 -3.9 67 67 SW 23 37 29.77 1008 10 16 N/A
10:53 am 10:53 Sunny 39 3.9 25 -3.9 57 57 SW 21 33 29.75 1007 10 16 N/A
11:53 am 11:53 Sunny 41 5 22 -5.6 47 47 WSW 18 30 29.73 1007 10 16 N/A
12:53 pm 12:53 Sunny 44 6.7 22 -5.6 41 41 W 21 33 29.70 1006 10 16 N/A
1:53 pm 13:53 Sunny 46 7.8 19 -7.2 34 34 WSW 22 35 29.68 1005 10 16 N/A
2:53 pm 14:53 Sunny 48 8.9 22 -5.6 36 36 WSW 17 28 29.64 1004 10 16 N/A
3:53 pm 15:53 Sunny 49 9.4 21 -6.1 33 33 W 23 37 29.63 1004 10 16 N/A
4:53 pm 16:53 Sunny 48 8.9 21 -6.1 34 34 W 25 41 29.63 1003 10 16 N/A
5:53 pm 17:53 Sunny 48 8.9 22 -5.6 36 36 WSW 24 39 29.62 1003 10 16 N/A
6:53 pm 18:53 Sunny 46 7.8 22 -5.6 38 38 WSW 20 31 29.62 1003 10 16 N/A
7:53 pm 19:53 Clear 42 5.6 24 -4.4 49 49 W 17 28 29.64 1004 10 16 N/A
8:53 pm 20:53 Clear 39 3.9 24 -4.4 55 55 W 17 28 29.66 1004 10 16 N/A
9:53 pm 21:53 Clear 37 2.8 22 -5.6 54 54 W 20 31 29.69 1005 10 16 N/A
10:53 pm 22:53 Clear 35 1.7 23 -5 61 61 W 13 20 29.71 1006 10 16 N/A
11:53 pm 23:53 Clear 34 1.1 23 -5 64 64 SW 14 22 29.73 1007 10 16 N/A

Powered by AerisWeather